EW3286 Weather Reports


Display with metric or nautical units.
time (UTC)temp
F
wind
direction
speed
MPH
gust
MPH
rain 1hr
in
rain 24hr
in
rain mn
in
humidity
%
barometer
mb
20260901000110 88 346 0.0 0.0 0.00 0.00 0.00 52 1010.3
20260831234621 87 346 0.0 0.0 0.00 0.00 0.00 44 1010.3
20260831233118 87 346 0.0 0.0 0.00 0.00 0.00 40 1010.5
20260831231558 87 346 0.0 0.0 0.00 0.00 0.00 38 1010.3
20260831230058 87 346 0.0 0.0 0.00 0.00 0.00 36 1010.3
20260831224557 87 346 0.0 0.0 0.00 0.00 0.00 36 1010.3
20260831223057 88 302 0.0 0.0 0.00 0.00 0.00 35 1010.4
20260831221555 88 316 0.0 0.0 0.00 0.00 0.00 35 1010.3
20260831220056 87 335 0.0 0.0 0.00 0.00 0.00 37 1010.2
20260831214604 88 355 0.0 0.0 0.00 0.00 0.00 39 1010.4
20260831213050 88 346 0.0 0.0 0.00 0.00 0.00 37 1010.4
20260831211547 88 348 0.0 0.0 0.00 0.00 0.00 41 1010.3
20260831210046 88 343 0.0 0.0 0.00 0.00 0.00 41 1010.4
20260831204540 88 308 0.0 0.0 0.00 0.00 0.00 43 1010.3
20260831203036 87 9 0.0 0.0 0.00 0.00 0.00 43 1010.3
20260831201538 86 317 0.0 0.0 0.00 0.00 0.00 44 1010.2
20260831200026 86 313 0.0 0.0 0.00 0.00 0.00 45 1010.1
20260831194522 85 303 0.0 0.0 0.00 0.00 0.00 46 1010.1
20260831193020 85 297 0.0 0.0 0.00 0.00 0.00 48 1010.1
20260831191514 85 279 0.0 0.0 0.00 0.00 0.00 49 1010.0
20260831190014 85 253 0.0 0.0 0.00 0.00 0.00 50 1010.0
20260831184511 84 292 0.0 0.0 0.00 0.00 0.00 51 1009.9
20260831183007 83 246 0.0 0.0 0.00 0.00 0.00 55 1010.1
20260831181504 83 276 0.0 0.0 0.00 0.00 0.00 58 1010.2
20260831180004 82 258 0.0 0.0 0.00 0.00 0.00 59 1010.0
20260831174603 82 229 0.0 0.0 0.00 0.00 0.00 65 1010.1
20260831173056 81 256 0.0 0.0 0.00 0.00 0.00 67 1010.2
20260831171551 80 199 0.0 0.0 0.00 0.00 0.00 70 1010.0
20260831170053 78 268 0.0 0.0 0.00 0.00 0.00 73 1010.0
20260831164543 78 249 0.0 0.0 0.00 0.00 0.00 75 1010.1
20260831163046 77 360 0.0 0.0 0.00 0.00 0.00 76 1010.2
20260831161536 76 260 0.0 0.0 0.00 0.00 0.00 79 1010.3
20260831160045 76 274 0.0 0.0 0.00 0.00 0.00 79 1010.4
20260831154532 75 360 0.0 0.0 0.00 0.00 0.00 81 1010.5
20260831153029 75 236 0.0 0.0 0.00 0.00 0.00 81 1010.3
20260831151532 75 256 0.0 0.0 0.00 0.00 0.00 83 1009.9
20260831150024 74 250 0.0 0.0 0.00 0.00 0.00 86 1009.9
20260831144520 73 238 0.0 0.0 0.00 0.00 0.00 87 1009.6
20260831143017 73 279 0.0 0.0 0.00 0.00 0.00 91 1009.3
20260831141514 72 221 0.0 0.0 0.00 0.00 0.00 93 1009.3
20260831140011 71 259 0.0 0.0 0.00 0.00 0.00 94 1009.0
20260831134518 70 360 0.0 0.0 0.00 0.00 0.00 95 1009.0
20260831133006 70 240 0.0 0.0 0.00 0.00 0.00 95 1008.7
20260831131503 70 240 0.0 0.0 0.00 0.00 0.00 95 1008.5
20260831130101 69 240 0.0 0.0 0.00 0.00 0.00 94 1008.4
20260831124658 69 241 0.0 0.0 0.00 0.00 0.00 94 1008.1
20260831123053 69 213 0.0 0.0 0.00 0.00 0.00 94 1008.0
20260831121553 69 256 0.0 0.0 0.00 0.00 0.00 94 1007.6
20260831120046 69 198 0.0 0.0 0.00 0.00 0.00 93 1007.5
20260831114550 69 198 0.0 0.0 0.00 0.00 0.00 93 1007.1
20260831113043 70 199 0.0 0.0 0.00 0.00 0.00 94 1007.0
20260831111548 70 360 0.0 0.0 0.00 0.00 0.00 94 1007.0
20260831110054 69 180 0.0 0.0 0.00 0.00 0.00 94 1006.6
20260831104542 69 167 0.0 0.0 0.00 0.00 0.00 94 1006.6
20260831103040 70 171 0.0 0.0 0.00 0.00 0.00 94 1006.2
20260831101543 70 174 0.0 0.0 0.00 0.00 0.00 94 1006.3
20260831100034 70 159 0.0 0.0 0.00 0.00 0.00 94 1006.2
20260831094539 69 155 0.0 0.0 0.00 0.00 0.00 93 1006.1
20260831093032 70 155 0.0 0.0 0.00 0.00 0.00 93 1006.1
20260831091538 70 155 0.0 0.0 0.00 0.00 0.00 93 1006.0
20260831090029 70 155 0.0 0.0 0.00 0.00 0.00 93 1006.2
20260831084526 70 156 0.0 0.0 0.00 0.00 0.00 93 1006.1
20260831083025 71 156 0.0 0.0 0.00 0.00 0.00 93 1006.0
20260831081523 71 157 0.0 0.0 0.00 0.00 0.00 93 1005.8
20260831080025 71 136 0.0 0.0 0.00 0.00 0.00 93 1005.9
20260831074622 71 139 0.0 0.0 0.00 0.00 0.00 92 1005.7
20260831073017 72 142 0.0 0.0 0.00 0.00 0.00 92 1005.7
20260831071516 72 143 0.0 0.0 0.00 0.00 0.00 92 1005.6
20260831070015 72 114 0.0 0.0 0.00 0.00 0.00 92 1005.8
20260831064513 72 141 0.0 0.0 0.00 0.00 0.00 92 1005.9
20260831063011 73 153 0.0 0.0 0.00 0.00 0.00 92 1005.8
20260831061516 73 153 0.0 0.0 0.00 0.00 0.00 92 1005.7
20260831060010 73 93 0.0 0.0 0.00 0.00 0.00 92 1005.9
20260831054510 73 140 0.0 0.0 0.00 0.00 0.00 91 1005.8
20260831053004 73 81 0.0 0.0 0.00 0.00 0.00 92 1005.8
20260831051559 73 101 0.0 0.0 0.00 0.00 0.00 91 1006.0
20260831050056 73 94 0.0 0.0 0.00 0.00 0.00 91 1005.9
20260831044609 74 74 0.0 0.0 0.00 0.00 0.00 91 1005.9
20260831043050 74 153 0.0 0.0 0.00 0.00 0.00 90 1005.9
20260831041610 74 94 0.0 0.0 0.00 0.00 0.00 90 1005.8
20260831040050 74 86 0.0 0.0 0.00 0.00 0.00 90 1005.9
20260831034550 75 101 0.0 0.0 0.00 0.00 0.00 89 1005.7
20260831033049 75 67 0.0 0.0 0.00 0.00 0.00 89 1005.7
20260831031547 75 91 0.0 0.0 0.00 0.00 0.00 88 1005.6
20260831030052 75 89 0.0 0.0 0.00 0.00 0.00 88 1005.6
20260831024547 75 87 0.0 0.0 0.00 0.00 0.00 88 1005.7
20260831023046 75 90 0.0 0.0 0.00 0.00 0.00 88 1005.5
20260831021546 75 80 0.0 0.0 0.00 0.00 0.00 87 1005.6
20260831020046 76 74 0.0 0.0 0.00 0.00 0.00 86 1005.4
20260831014545 76 74 0.0 0.0 0.00 0.00 0.00 84 1005.2
20260831013050 77 71 0.0 0.0 0.00 0.00 0.00 82 1004.9
20260831011548 78 80 0.0 0.0 0.00 0.00 0.00 81 1005.0
20260831010043 80 80 0.0 0.0 0.00 0.00 0.00 79 1005.0
20260831004543 81 88 0.0 0.0 0.00 0.00 0.00 76 1005.1
20260831003043 82 90 0.0 0.0 0.00 0.00 0.00 73 1004.9
20260831001542 83 96 0.0 0.0 0.00 0.00 0.00 71 1004.8